Location: Binningen
(47.7924°N, 8.7261°E)
Time: 01:49:28
(UTC+00:00)

Terra - Pass Details

Date: 26 September 2021
Orbit: 701 x 703 km, 98.2° (Epoch: 24 October)

Event Time Altitude Azimuth Distance (km) Brightness Sun altitude
Exits shadow 22:13:15 11° 324° (NW) 2,088 4.8 -41.8°
Drops below altitude 10° 22:13:31 10° 326° (NW) 2,181 5.0 -41.9°
Sets 22:16:04 0° 337° (NNW) 3,104 6.0 -42.0°
